JE7ZDC Weather Reports


time (UTC)temp
C
wind
direction
speed
KPH
gust
KPH
rain 1hr
cm
rain 24hr
cm
rain mn
cm
humidity
%
barometer
mb
20260508230035 15 281 4.8 32.2 0.00 0.64 0.03 58 1005.2
20260508224545 14 309 16.1 32.2 0.00 0.64 0.03 60 1004.6
20260508223043 13 229 12.9 27.4 0.00 0.64 0.03 60 1004.6
20260508221528 13 289 11.3 29.0 0.00 0.64 0.03 62 1004.7
20260508220029 13 330 16.1 41.8 0.00 0.64 0.03 59 1005.0
20260508214542 13 254 12.9 37.0 0.03 0.64 0.03 58 1005.2
20260508213020 13 349 8.0 17.7 0.03 0.64 0.03 59 1004.7
20260508211519 13 164 3.2 24.1 0.03 0.64 0.03 58 1004.7
20260508210016 13 57 8.0 75.6 0.03 0.64 0.03 57 1004.4
20260508204518 12 255 3.2 20.9 0.00 0.61 0.00 61 1004.9
20260508203017 12 244 3.2 8.0 0.00 0.61 0.00 61 1004.0
20260508201514 12 65 4.8 12.9 0.00 0.61 0.00 59 1004.2
20260508200019 12 130 8.0 19.3 0.00 0.61 0.00 62 1004.4
20260508194515 12 257 0.0 14.5 0.00 0.61 0.00 63 1004.7
20260508193010 12 287 6.4 19.3 0.00 0.61 0.00 65 1004.6
20260508191508 12 273 3.2 19.3 0.00 0.61 0.00 64 1004.2
20260508190018 12 290 0.0 24.1 0.00 0.61 0.00 62 1004.2
20260508184516 12 289 6.4 33.8 0.00 0.61 0.00 59 1003.9
20260508183009 12 253 4.8 19.3 0.00 0.61 0.00 62 1003.8
20260508181501 12 338 3.2 16.1 0.00 0.61 0.00 61 1003.7
20260508180116 12 287 4.8 30.6 0.00 0.61 0.00 63 1003.8
20260508174613 12 256 4.8 17.7 0.00 0.61 0.00 61 1003.7
20260508173058 12 267 4.8 19.3 0.00 0.61 0.00 57 1003.7
20260508171555 12 1 8.0 30.6 0.00 0.61 0.00 58 1003.5
20260508170055 12 282 4.8 16.1 0.00 0.61 0.00 55 1003.4
20260508164553 12 288 3.2 20.9 0.00 0.61 0.00 54 1003.8
20260508163046 12 275 3.2 27.4 0.00 0.61 0.00 56 1003.8
20260508161545 12 278 4.8 22.5 0.00 0.61 0.00 57 1003.7
20260508160041 12 240 0.0 16.1 0.00 0.61 0.00 59 1003.8
20260508154539 12 307 1.6 12.9 0.00 0.61 0.00 59 1003.5
20260508153044 13 293 6.4 25.7 0.00 0.61 0.00 58 1003.1
20260508151533 13 323 9.7 45.1 0.00 0.61 0.00 57 1003.1
20260508150032 13 256 4.8 17.7 0.00 0.61 0.00 60 1002.8
20260508144530 13 11 3.2 38.6 0.00 0.61 0.61 57 1003.0
20260508143026 13 297 6.4 45.1 0.00 0.61 0.61 60 1003.1
20260508141525 13 285 12.9 54.7 0.00 0.61 0.61 57 1003.3
20260508140023 13 259 14.5 37.0 0.00 0.61 0.61 63 1003.0
20260508134518 13 58 4.8 20.9 0.00 0.61 0.61 68 1002.4
20260508133016 13 264 11.3 35.4 0.00 0.61 0.61 71 1002.9
20260508131515 13 296 9.7 24.1 0.03 0.61 0.61 74 1002.6
20260508130028 13 264 4.8 32.2 0.03 0.61 0.61 77 1002.9
20260508124512 12 306 4.8 29.0 0.03 0.61 0.61 82 1003.2
20260508123015 13 234 1.6 8.0 0.03 0.61 0.61 88 1003.1
20260508121510 14 271 0.0 4.8 0.05 0.61 0.61 86 1003.1
20260508120010 14 258 0.0 3.2 0.05 0.61 0.61 85 1002.7
20260508114509 15 67 0.0 4.8 0.08 0.61 0.61 83 1002.9
20260508113008 15 355 0.0 3.2 0.05 0.58 0.58 83 1002.3
20260508111508 15 136 0.0 1.6 0.03 0.53 0.53 83 1002.8
20260508110006 15 242 0.0 1.6 0.03 0.53 0.53 84 1002.8
20260508104506 15 242 0.0 1.6 0.00 0.51 0.51 84 1002.5
20260508103010 15 257 0.0 3.2 0.00 0.51 0.51 85 1001.9
20260508101505 15 115 0.0 1.6 0.03 0.51 0.51 84 1001.7
20260508100004 15 79 0.0 4.8 0.05 0.51 0.51 84 1001.5
20260508094505 15 294 0.0 0.0 0.05 0.51 0.51 85 1001.4
20260508093006 15 241 0.0 4.8 0.05 0.51 0.51 84 1001.3
20260508091509 15 60 1.6 4.8 0.05 0.51 0.51 84 1000.8
20260508090008 15 68 0.0 1.6 0.20 0.48 0.48 86 1001.1
20260508084502 15 99 0.0 4.8 0.20 0.48 0.48 87 1001.3
20260508083001 16 5 0.0 3.2 0.20 0.48 0.48 87 1001.3
20260508081614 16 74 1.6 6.4 0.18 0.46 0.46 87 1000.9
20260508074600 17 117 0.0 0.0 0.00 0.28 0.28 87 1001.2
20260508073059 17 117 0.0 0.0 0.03 0.28 0.28 87 1001.1
20260508071557 17 117 0.0 0.0 0.15 0.28 0.28 87 1001.2
20260508070157 17 117 0.0 0.0 0.25 0.28 0.28 87 1001.3
20260508064558 17 118 0.0 1.6 0.28 0.28 0.28 87 1001.4
20260508063104 17 86 0.0 1.6 0.25 0.25 0.25 88 1001.5
20260508061555 18 241 0.0 4.8 0.13 0.13 0.13 83 1002.2
20260508060053 21 253 0.0 1.6 0.03 0.03 0.03 69 1001.2
20260508054553 22 142 0.0 1.6 0.00 0.00 0.00 62 1001.3
20260508053103 23 169 0.0 6.4 0.00 0.00 0.00 59 1001.2
20260508051549 23 146 0.0 3.2 0.00 0.00 0.00 59 1001.5
20260508050049 23 90 0.0 3.2 0.00 0.00 0.00 57 1001.8
20260508044545 23 118 0.0 3.2 0.00 0.00 0.00 60 1002.0
20260508043055 23 158 0.0 1.6 0.00 0.00 0.00 63 1002.6
20260508041548 22 19 0.0 0.0 0.00 0.00 0.00 63 1002.9
20260508040040 23 143 0.0 1.6 0.00 0.00 0.00 60 1003.1
20260508034540 23 275 0.0 1.6 0.00 0.00 0.00 60 1003.0
20260508033038 23 270 0.0 1.6 0.00 0.00 0.00 60 1002.8
20260508031536 23 126 0.0 1.6 0.00 0.00 0.00 60 1002.9
20260508030040 23 124 0.0 0.0 0.00 0.00 0.00 60 1003.2
20260508024533 23 101 0.0 1.6 0.00 0.00 0.00 60 1003.9
20260508023030 25 224 0.0 4.8 0.00 0.00 0.00 52 1003.7
20260508021526 24 255 0.0 1.6 0.00 0.00 0.00 53 1003.8
20260508020029 23 264 0.0 0.0 0.00 0.00 0.00 55 1004.0
20260508014522 22 264 0.0 3.2 0.00 0.00 0.00 60 1004.8
20260508013017 23 185 0.0 1.6 0.00 0.00 0.00 61 1005.2
20260508011519 23 283 0.0 3.2 0.00 0.00 0.00 58 1005.6
20260508010017 22 278 0.0 4.8 0.00 0.00 0.00 54 1004.9
20260508004513 22 281 0.0 4.8 0.00 0.00 0.00 60 1005.6
20260508003009 23 328 0.0 1.6 0.00 0.00 0.00 55 1005.7
20260508001519 22 134 0.0 3.2 0.00 0.00 0.00 56 1005.8
20260508000006 23 145 0.0 1.6 0.00 0.00 0.00 61 1006.0
20260507234502 22 228 0.0 1.6 0.00 0.00 0.00 60 1006.0
20260507233058 21 239 0.0 4.8 0.00 0.00 0.00 61 1006.3
20260507231557 21 278 0.0 3.2 0.00 0.00 0.00 64 1006.6